[Date Prev][Date Next][Thread Prev][Thread Next] - [Date Index][Thread Index][Author Index]
2 Line ISS Keps 7-15
- Subject: [sarex] 2 Line ISS Keps 7-15
- From: "Dave Larsen PhD" <doc@xxxxxxxxxxx>
- Date: Mon, 15 Jul 2002 02:37:01 -0700
ISS
1 25544U 98067A 02196.09743623 .00016705 00000-0 21624-3 0 6637
2 25544 51.6367 272.8622 0008498 359.1582 70.3852 15.59001798208382
----
Via the sarex mailing list at AMSAT.ORG courtesy of AMSAT-NA.
To unsubscribe, send "unsubscribe sarex" to Majordomo@amsat.org
AMSAT Home